[[{"header":{"parameterUnit":"m.s-1","parameterCategory":1,"la1":30.2991,"la2":30.254,"lo1":-89.0895,"lo2":-89.0444,"dy":0.0017,"dx":0.0017,"nx":28,"ny":28,"refTime":"2023-07-22T09:00:00:Z","depth":0,"parameterNumber":2,"parameterNumberName":"U-component_of_WINDS"},"data":[0,0,0,0,0,0,0,0,0,0,0,0,0,0,0,0,0,0,0,0,0,0,0,0,0,0,0,0,0,0,0,0,0,0,0,0,0,0,0,0,0,0,0,0,0,0,0,0,0,0,0,0,0,0,0,0,0,0,5.9429,5.9431,0,5.9663,5.9665,5.9668,5.9708,5.9706,5.9704,5.9702,5.9923,5.993,5.9938,0,0,0,0,0,0,0,0,0,0,0,0,0,5.8999,5.9007,5.9428,5.9431,5.9434,5.9662,5.9665,5.9668,5.9708,5.9706,5.9704,5.9702,5.9921,5.993,5.9939,0,0,0,0,0,0,0,0,0,0,0,0,0,5.9204,5.9009,5.9428,5.9482,5.949,5.9662,5.9665,5.9669,5.9709,5.9706,5.9703,5.97,5.9918,5.9929,5.994,6.0068,0,0,5.9975,5.998,0,0,0,0,0,0,0,0,5.9192,5.922,5.9471,5.9479,5.9487,5.9654,5.9595,5.9802,5.971,5.9625,5.9702,5.9699,5.9834,5.9853,5.9902,6.0079,6.0088,5.9976,5.9983,5.9988,5.9991,0,0,0,0,0,0,0,5.9178,5.921,5.952,5.9475,5.9485,5.9489,5.9515,5.9634,5.9742,5.9632,5.9636,5.9664,5.9838,5.9891,5.9908,6.0091,5.9976,5.9986,5.9993,5.9998,6.0383,6.0386,0,0,0,0,0,0,5.9157,5.9198,5.9513,5.9528,5.933,5.9499,5.9528,5.9603,5.9741,5.976,5.9666,5.9665,5.9873,5.9894,5.9915,6.0073,5.9988,5.9999,6.0005,6.038,6.0384,6.0388,0,0,0,0,0,0,5.9147,5.9185,5.9504,5.9364,5.9405,5.951,5.9593,5.9609,5.9662,5.9767,5.9785,5.9702,5.9871,5.9899,6.0031,6.0082,6.0004,6.0014,6.0376,6.0381,6.0386,6.0391,0,0,0,0,0,0,5.9135,5.9181,5.9235,5.9365,5.9412,5.962,5.9596,5.9616,5.9684,5.9685,5.9805,5.9822,5.9871,6.0014,6.0043,6.0096,6.0023,6.0372,6.0378,6.0384,6.0386,6.0395,6.0403,0,0,0,0,0,5.9119,5.9223,5.9237,5.9275,5.9483,5.9623,5.965,5.971,5.9688,5.974,5.9808,5.9818,6.0073,6.0027,6.006,6.0117,6.0369,6.0376,6.0384,6.0383,6.0394,6.0403,0,0,0,0,0,0,5.9088,5.9241,5.9258,5.9408,5.9504,5.963,5.9697,5.9719,5.9817,5.9813,5.9878,5.9904,6.0032,6.0088,6.0035,6.0248,6.0218,6.0233,6.0206,6.0218,6.0226,6.0207,6.0033,0,0,0,0,0,5.91,5.9208,5.9333,5.9452,5.95,5.9591,5.9654,5.9693,5.9791,5.983,5.9907,5.9997,6.0097,6.0161,6.0259,6.0397,6.0421,6.0452,6.046,6.0467,6.0476,6.0551,6.0565,6.0412,6.0412,6.0412,0,0,5.9122,5.9219,5.9282,5.9449,5.9527,5.9631,5.9624,5.9734,5.981,5.9844,5.9975,6.0035,6.0139,6.0274,6.0337,6.0324,6.0525,6.0476,6.0481,6.0487,6.056,6.0574,6.0587,6.0417,6.0416,6.0416,0,0,5.9217,5.9304,5.9413,5.9493,5.9614,5.9675,5.9701,5.9826,5.9868,6.0002,6.003,6.0118,6.0291,6.0364,6.0423,6.0549,6.056,6.0579,6.0619,6.0691,6.0703,6.0714,6.0755,6.077,6.0589,6.0589,6.0589,0,5.9227,5.9392,5.9464,5.9575,5.9645,5.9689,5.9797,5.9869,6.0013,6.0058,6.0044,6.0262,6.0335,6.0487,6.0518,6.0566,6.0594,6.0563,6.0697,6.0709,6.072,6.0759,6.0775,6.059,6.059,6.059,6.059,0,5.9398,5.9511,5.9584,5.973,5.9809,5.9917,6.0,6.0071,6.0103,6.0163,6.0297,6.0387,6.0504,6.0544,6.0574,6.07,6.0688,6.0685,6.0655,6.0734,6.0773,6.0789,6.0592,6.0592,6.0591,6.0591,0,0,5.9474,5.9663,5.9687,5.9754,5.9893,5.9978,6.0087,6.0209,6.0266,6.0364,6.0453,6.06,6.0599,6.0667,6.0706,6.077,6.086,6.0759,6.0762,6.0771,6.0999,6.0998,6.1015,6.0871,6.0874,6.0877,6.0989,0,5.9582,5.9785,5.9854,6.0019,6.0122,6.0167,6.0261,6.0353,6.0412,6.0504,6.0567,6.0669,6.0662,6.0703,6.0769,6.0835,6.0905,6.0828,6.0948,6.0951,6.0917,6.1036,6.1034,6.1136,6.1005,6.1008,6.101,0,5.9735,5.9843,6.002,6.0147,6.0193,6.0277,6.0393,6.0483,6.0587,6.0625,6.0703,6.0739,6.0848,6.0817,6.0966,6.0912,6.0966,6.1006,6.1011,6.102,6.0982,6.1044,6.1171,6.1184,6.1035,6.1033,6.1031,0,5.9768,5.9958,6.0089,6.0145,6.0297,6.0354,6.0419,6.0521,6.059,6.0689,6.0734,6.0843,6.0901,6.0982,6.1044,6.1016,6.1187,6.1161,6.1217,6.1215,6.1247,6.1243,6.1379,6.1288,6.1288,6.1288,6.1287,0,5.9879,5.9985,6.0107,6.0186,6.0305,6.0381,6.0494,6.056,6.0652,6.074,6.0784,6.0865,6.0945,6.1035,6.1084,6.1198,6.1225,6.1255,6.1265,6.1249,6.1244,6.1281,6.1274,6.1292,6.1291,6.129,6.1289,0,5.9935,6.0022,6.0166,6.0301,6.0337,6.0418,6.053,6.0606,6.067,6.0782,6.0812,6.0909,6.1018,6.109,6.1226,6.1259,6.1383,6.1394,6.1349,6.1354,6.1404,6.1397,6.1565,6.159,6.1486,6.1487,6.1487,0,5.9998,6.0082,6.0227,6.0294,6.0361,6.0466,6.0539,6.0617,6.0688,6.0815,6.0874,6.0988,6.1082,6.1253,6.1331,6.1436,6.1447,6.1499,6.1462,6.1443,6.1443,6.1436,6.1443,6.1503,6.1504,6.1504,6.1505,0,6.01,6.014,6.0246,6.0367,6.0454,6.0551,6.0648,6.0698,6.0791,6.0869,6.0985,6.1059,6.1203,6.1312,6.1425,6.1485,6.1508,6.1517,6.1535,6.1516,6.1486,6.15,6.1361,6.1511,6.1511,6.151,6.151,6.151,6.0159,6.0235,6.0351,6.0466,6.055,6.064,6.0719,6.0795,6.0895,6.1022,6.1061,6.118,6.128,6.1435,6.1498,6.1588,6.1581,6.1608,6.1614,6.1618,6.1617,6.1476,6.1609,6.1609,6.1609,6.1609,6.1608,0,6.026,6.0338,6.0445,6.0583,6.0673,6.0697,6.0805,6.0877,6.0984,6.1079,6.1174,6.1305,6.1413,6.1502,6.1612,6.1667,6.168,6.1692,6.1686,6.1699,6.1618,6.159,6.168,6.168,6.168,6.168,6.168,6.168,6.0323,6.0453,6.0507,6.0676,6.0752,6.0875,6.0934,6.1016,6.1093,6.124,6.1332,6.1393,6.1484,6.1602,6.17,6.1723,6.1759,6.1768,6.1792,6.1713,6.1705,6.1697,6.1671,6.1777,6.1777,6.1866,6.1867,6.1868]},{"header":{"parameterUnit":"m.s-1","parameterCategory":1,"la1":30.2991,"la2":30.254,"lo1":-89.0895,"lo2":-89.0444,"dy":0.0017,"dx":0.0017,"nx":28,"ny":28,"refTime":"2023-07-22T09:00:00:Z","depth":0,"parameterNumber":3,"parameterNumberName":"V-component_of_WINDS"},"data":[0,0,0,0,0,0,0,0,0,0,0,0,0,0,0,0,0,0,0,0,0,0,0,0,0,0,0,0,0,0,0,0,0,0,0,0,0,0,0,0,0,0,0,0,0,0,0,0,0,0,0,0,0,0,0,0,0,0,1.5682,1.5684,0,1.579,1.5791,1.5792,1.5864,1.5864,1.5865,1.5865,1.5971,1.5973,1.5976,0,0,0,0,0,0,0,0,0,0,0,0,0,1.5538,1.554,1.5682,1.5684,1.5685,1.579,1.5791,1.5793,1.5863,1.5864,1.5865,1.5865,1.597,1.5973,1.5976,0,0,0,0,0,0,0,0,0,0,0,0,0,1.5619,1.5541,1.5682,1.5733,1.5739,1.5789,1.5791,1.5793,1.5863,1.5864,1.5865,1.5865,1.5969,1.5973,1.5976,1.5984,0,0,1.5987,1.5989,0,0,0,0,0,0,0,0,1.5614,1.5624,1.5724,1.573,1.5736,1.5814,1.5779,1.5857,1.5863,1.5816,1.5865,1.5866,1.5918,1.5926,1.5944,1.5989,1.5993,1.5987,1.599,1.5991,1.5992,0,0,0,0,0,0,0,1.5608,1.562,1.5725,1.5726,1.5733,1.5751,1.5763,1.5794,1.5861,1.582,1.5826,1.5837,1.5921,1.5941,1.5947,1.5995,1.5987,1.5991,1.5993,1.5994,1.6055,1.6055,0,0,0,0,0,0,1.5595,1.5614,1.5721,1.5728,1.5676,1.5753,1.5766,1.5788,1.5861,1.5873,1.5837,1.584,1.5934,1.5943,1.5951,1.5968,1.5991,1.5994,1.5997,1.6056,1.6055,1.6055,0,0,0,0,0,0,1.5592,1.5604,1.5717,1.5673,1.5689,1.5754,1.5778,1.579,1.5809,1.5874,1.5886,1.5844,1.5935,1.5946,1.5976,1.5972,1.5996,1.5999,1.6056,1.6056,1.6055,1.5999,0,0,0,0,0,0,1.5587,1.5602,1.5605,1.5672,1.5691,1.574,1.5778,1.5792,1.5816,1.5822,1.5884,1.5895,1.5937,1.5971,1.598,1.5978,1.6002,1.6057,1.6056,1.6055,1.6001,1.5996,1.5992,0,0,0,0,0,1.5582,1.5583,1.5605,1.5617,1.5696,1.574,1.575,1.5799,1.5815,1.5819,1.5862,1.5893,1.5971,1.5973,1.5984,1.5983,1.6058,1.6056,1.6055,1.6003,1.5997,1.5992,0,0,0,0,0,0,1.5511,1.5593,1.5618,1.5641,1.5683,1.5752,1.5758,1.579,1.5827,1.5831,1.5889,1.5903,1.5928,1.5958,1.5959,1.5996,1.6018,1.6019,1.5975,1.597,1.5965,1.5957,1.6005,0,0,0,0,0,1.5499,1.5528,1.5597,1.5611,1.5632,1.5691,1.5712,1.5747,1.5792,1.5809,1.5854,1.5896,1.5931,1.5952,1.5987,1.6006,1.6022,1.6011,1.6006,1.6002,1.6002,1.6019,1.6016,1.6051,1.6051,1.6051,0,0,1.5472,1.5521,1.5535,1.5599,1.5635,1.5665,1.5705,1.5734,1.5757,1.5813,1.5846,1.588,1.5931,1.5957,1.5971,1.5983,1.5997,1.6001,1.5997,1.6,1.6017,1.6014,1.6011,1.605,1.605,1.605,0,0,1.544,1.5479,1.5497,1.5534,1.559,1.5631,1.5635,1.57,1.5726,1.576,1.5804,1.5832,1.5889,1.5925,1.5951,1.5938,1.5969,1.5947,1.5922,1.5938,1.5935,1.5933,1.5931,1.5929,1.5947,1.5947,1.5947,0,1.54,1.5447,1.5501,1.5529,1.5557,1.5612,1.5632,1.5665,1.5729,1.5747,1.5761,1.5838,1.5875,1.5912,1.591,1.5928,1.5936,1.594,1.5931,1.593,1.5928,1.5927,1.5926,1.5944,1.5945,1.5945,1.5945,0,1.5396,1.5428,1.5436,1.55,1.5529,1.5551,1.561,1.5632,1.5666,1.5705,1.5741,1.5789,1.5837,1.5848,1.5879,1.5891,1.5897,1.592,1.5944,1.5921,1.5921,1.5921,1.594,1.5941,1.5942,1.5943,0,0,1.532,1.5417,1.5419,1.5451,1.5519,1.5545,1.5572,1.5621,1.564,1.5683,1.5708,1.5758,1.5782,1.5811,1.5847,1.586,1.5851,1.5882,1.5884,1.5876,1.587,1.5853,1.5851,1.5872,1.5872,1.5872,1.5866,0,1.5299,1.5352,1.5404,1.5437,1.547,1.5525,1.5549,1.5594,1.5632,1.5665,1.5707,1.5743,1.5769,1.5788,1.5804,1.5848,1.585,1.5849,1.5897,1.5898,1.5883,1.585,1.5832,1.5824,1.5866,1.5866,1.5866,0,1.5282,1.5326,1.5364,1.5434,1.5449,1.5469,1.5521,1.5551,1.5604,1.5631,1.5667,1.5706,1.5738,1.5759,1.5805,1.5804,1.5827,1.5852,1.5853,1.5859,1.5881,1.5858,1.5822,1.5821,1.5866,1.5866,1.5866,0,1.5226,1.5294,1.5327,1.5352,1.5433,1.5447,1.5481,1.5535,1.5563,1.5607,1.5626,1.5673,1.5699,1.5735,1.5787,1.5796,1.5829,1.5853,1.5853,1.5852,1.5857,1.5856,1.5826,1.587,1.587,1.587,1.587,0,1.5198,1.5219,1.5304,1.5323,1.535,1.541,1.5435,1.5474,1.5523,1.5552,1.5602,1.5628,1.5695,1.5729,1.577,1.5804,1.5814,1.5838,1.5849,1.5834,1.5832,1.585,1.5853,1.5869,1.5869,1.587,1.587,0,1.5139,1.5196,1.5236,1.5311,1.5331,1.5347,1.5412,1.5434,1.5477,1.5514,1.5526,1.5592,1.5636,1.5692,1.5752,1.578,1.581,1.5825,1.5792,1.5799,1.5797,1.5797,1.5778,1.578,1.5821,1.582,1.582,0,1.5118,1.5137,1.5215,1.524,1.5273,1.5311,1.5341,1.5402,1.543,1.5495,1.551,1.5558,1.56,1.5668,1.5721,1.5769,1.5787,1.5777,1.5794,1.578,1.5789,1.5788,1.5791,1.5772,1.5772,1.5771,1.5771,0,1.5076,1.5104,1.5146,1.5198,1.5233,1.5277,1.5322,1.5339,1.541,1.544,1.5487,1.5519,1.5584,1.5632,1.5687,1.5723,1.5759,1.5765,1.5768,1.5754,1.5735,1.5748,1.5782,1.5765,1.5766,1.5766,1.5766,1.5767,1.5037,1.5058,1.5118,1.5163,1.5205,1.5247,1.5274,1.5321,1.5362,1.542,1.5453,1.55,1.5556,1.5635,1.5669,1.5707,1.572,1.5723,1.5725,1.5725,1.5722,1.5729,1.5717,1.5717,1.5717,1.5717,1.5718,0,1.4999,1.5042,1.5083,1.5148,1.5184,1.5217,1.5271,1.5299,1.534,1.539,1.5432,1.5487,1.5535,1.5594,1.5646,1.5665,1.5683,1.5677,1.5676,1.5685,1.5706,1.5699,1.5661,1.5661,1.5661,1.5661,1.5661,1.5661,1.4984,1.5022,1.5058,1.5118,1.516,1.5208,1.5236,1.5276,1.5317,1.5378,1.5419,1.5458,1.5512,1.5569,1.5615,1.5632,1.5649,1.5638,1.5659,1.5678,1.5683,1.5687,1.5681,1.5641,1.5641,1.5635,1.5635,1.5635]}]]